Andrews, NC

4:54 AM EDT on March 27, 2017 (GMT -0400)
Andrews

Weather History for KRHP - January, 2013

Change the Weather History Date:

Tuesday, January 22, 2013

  Actual Average (KMMI) Record (KMMI)
Temperature  
Mean Temperature 30 °F -  
Max Temperature 39 °F 46 °F 46 °F (2015)
Min Temperature 22 °F 24 °F 6 °F (2014)
Degree Days  
Heating Degree Days 34    
Moisture  
Dew Point 7 °F    
Average Humidity 41    
Maximum Humidity 65    
Minimum Humidity 22    
Precipitation  
Precipitation 0.00 in - - ()
Sea Level Pressure  
Sea Level Pressure 30.20 in    
Wind  
Wind Speed 5 mph (NE)    
Max Wind Speed 12 mph    
Max Gust Speed 17 mph    
Visibility 10 miles    
Events      
Averages and records for this station are not official NWS values.
T = Trace of Precipitation, MM = Missing Value Source: NWS Daily Summary

Daily Weather History Graph

Daily Weather History Graph

Search for Another Location

Airport or City:

Trip Planner

Search our weather history database for the weather conditions in past years. The results will help you decide how hot, cold, wet, or windy it might be!

Date:

Astronomy

Jan. 22, 2013 Rise Set
Actual Time 7:40 AM EST 5:53 PM EST
Civil Twilight 7:13 AM EST 6:21 PM EST
Nautical Twilight 6:42 AM EST 6:51 PM EST
Astronomical Twilight 6:12 AM EST 7:22 PM EST
Moon 2:17 PM EST (1/22) 3:59 AM EST (1/22)
Length of Visible Light 11h 07m
Length of Day
10h 13m
Waxing Gibbous, 82% of the Moon is Illuminated
Jan 22
Waxing Gibbous
Jan 26
Full
Feb 3
Last Quarter
Feb 10
New
Feb 17
First Quarter

Hourly Weather History & Observations

Time (EST) Temp. Windchill Dew Point Humidity Pressure Visibility Wind Dir Wind Speed Gust Speed Precip Events Conditions
12:15 AM 27.1 °F - 15.1 °F 60% 30.13 in 10.0 mi Calm Calm - N/A   Clear
12:35 AM 25.9 °F 21.7 °F 15.4 °F 65% 30.12 in 10.0 mi WSW 3.5 mph - N/A   Clear
12:55 AM 27.3 °F 23.4 °F 15.3 °F 61% 30.13 in 10.0 mi West 3.5 mph - N/A   Clear
1:15 AM 28.0 °F - 14.4 °F 57% 30.12 in 10.0 mi Calm Calm - N/A   Clear
1:35 AM 26.8 °F 21.4 °F 14.9 °F 61% 30.12 in 10.0 mi WSW 4.6 mph - N/A   Clear
1:55 AM 26.2 °F 22.1 °F 15.4 °F 64% 30.13 in 10.0 mi WSW 3.5 mph - N/A   Clear
2:15 AM 27.5 °F 23.6 °F 12.6 °F 54% 30.13 in 10.0 mi West 3.5 mph - N/A   Clear
2:55 AM 25.2 °F - 14.7 °F 65% 30.12 in 10.0 mi Calm Calm - N/A   Clear
3:15 AM 27.3 °F 23.4 °F 12.0 °F 53% 30.13 in 10.0 mi North 3.5 mph - N/A   Clear
3:35 AM 27.5 °F 19.3 °F 10.6 °F 49% 30.13 in 10.0 mi NNW 8.1 mph - N/A   Clear
3:55 AM 27.0 °F 16.7 °F 10.6 °F 50% 30.13 in 10.0 mi NNW 11.5 mph - N/A   Clear
4:15 AM 27.0 °F 18.0 °F 9.0 °F 47% 30.13 in 10.0 mi NNW 9.2 mph 17.3 mph N/A   Clear
4:35 AM 27.0 °F 19.5 °F 6.3 °F 42% 30.13 in 10.0 mi NNE 6.9 mph - N/A   Clear
4:55 AM 26.2 °F 22.1 °F 6.3 °F 43% 30.15 in 10.0 mi North 3.5 mph - N/A   Clear
5:15 AM 25.5 °F 17.8 °F 6.6 °F 45% 30.15 in 10.0 mi NNE 6.9 mph - N/A   Clear
5:35 AM 24.6 °F 16.7 °F 7.7 °F 49% 30.16 in 10.0 mi NNE 6.9 mph - N/A   Clear
5:55 AM 23.9 °F 14.2 °F 9.1 °F 53% 30.16 in 10.0 mi ENE 9.2 mph - N/A   Clear
6:15 AM 23.5 °F 15.4 °F 7.9 °F 51% 30.18 in 10.0 mi East 6.9 mph - N/A   Clear
6:35 AM 23.2 °F 15.0 °F 7.9 °F 52% 30.17 in 10.0 mi East 6.9 mph - N/A   Clear
6:55 AM 22.6 °F 12.6 °F 8.4 °F 55% 30.18 in 10.0 mi East 9.2 mph - N/A   Clear
7:15 AM 22.8 °F 16.7 °F 7.2 °F 51% 30.19 in 10.0 mi ENE 4.6 mph - N/A   Clear
7:35 AM 22.6 °F 15.3 °F 6.8 °F 51% 30.19 in 10.0 mi ENE 5.8 mph - N/A   Clear
7:55 AM 22.3 °F 14.9 °F 7.3 °F 53% 30.19 in 10.0 mi ENE 5.8 mph - N/A   Clear
8:15 AM 23.0 °F 17.0 °F 6.8 °F 50% 30.20 in 10.0 mi ENE 4.6 mph - N/A   Clear
8:35 AM 24.6 °F 16.7 °F 5.4 °F 44% 30.20 in 10.0 mi East 6.9 mph - N/A   Clear
8:55 AM 25.3 °F 15.3 °F 5.5 °F 43% 30.21 in 10.0 mi East 10.4 mph - N/A   Clear
9:15 AM 26.2 °F 17.8 °F 5.5 °F 41% 30.21 in 10.0 mi East 8.1 mph - N/A   Clear
9:35 AM 27.0 °F 17.3 °F 6.4 °F 42% 30.22 in 10.0 mi East 10.4 mph - N/A   Clear
9:55 AM 27.5 °F 17.4 °F 6.6 °F 41% 30.22 in 10.0 mi ENE 11.5 mph - N/A   Clear
10:15 AM 28.4 °F 18.5 °F 7.0 °F 40% 30.23 in 10.0 mi ENE 11.5 mph - N/A   Clear
10:35 AM 29.1 °F 20.6 °F 6.6 °F 39% 30.24 in 10.0 mi ENE 9.2 mph - N/A   Clear
10:55 AM 30.4 °F 22.2 °F 7.0 °F 37% 30.24 in 10.0 mi East 9.2 mph - N/A   Clear
11:15 AM 30.9 °F 22.2 °F 6.4 °F 36% 30.25 in 10.0 mi East 10.4 mph - N/A   Clear
11:35 AM 32.0 °F 23.0 °F 5.7 °F 33% 30.25 in 10.0 mi ESE 11.5 mph - N/A   Clear
11:55 AM 32.0 °F 24.2 °F 4.6 °F 32% 30.24 in 10.0 mi ESE 9.2 mph - N/A   Clear
12:15 PM 32.9 °F 24.1 °F 4.1 °F 30% 30.23 in 10.0 mi East 11.5 mph - N/A   Clear
12:35 PM 34.2 °F 26.2 °F 4.1 °F 28% 30.22 in 10.0 mi East 10.4 mph - N/A   Clear
12:55 PM 35.6 °F 28.6 °F 1.4 °F 24% 30.22 in 10.0 mi NW 9.2 mph - N/A   Clear
1:15 PM 35.8 °F 30.1 °F 0.3 °F 22% 30.20 in 10.0 mi North 6.9 mph - N/A   Clear
1:35 PM 36.1 °F 29.3 °F 0.5 °F 22% 30.19 in 10.0 mi NNE 9.2 mph - N/A   Clear
1:55 PM 36.9 °F 31.4 °F 1.9 °F 23% 30.18 in 10.0 mi NW 6.9 mph - N/A   Clear
2:15 PM 38.1 °F 34.6 °F 4.1 °F 24% 30.18 in 10.0 mi NNW 4.6 mph - N/A   Clear
2:35 PM 38.5 °F 32.7 °F 4.8 °F 25% 30.17 in 10.0 mi NNE 8.1 mph - N/A   Clear
2:55 PM 39.0 °F 34.0 °F 5.4 °F 25% 30.16 in 10.0 mi North 6.9 mph - N/A   Clear
3:15 PM 38.8 °F 33.8 °F 5.7 °F 25% 30.17 in 10.0 mi NNE 6.9 mph - N/A   Clear
3:35 PM 39.0 °F 34.0 °F 6.4 °F 26% 30.17 in 10.0 mi NE 6.9 mph - N/A   Mostly Cloudy
3:55 PM 38.3 °F 32.5 °F 7.2 °F 28% 30.18 in 10.0 mi NNE 8.1 mph - N/A   Overcast
4:15 PM 38.8 °F 34.6 °F 6.3 °F 26% 30.19 in 10.0 mi North 5.8 mph - N/A   Overcast
4:35 PM 36.0 °F 31.1 °F 6.4 °F 29% 30.20 in 10.0 mi ENE 5.8 mph - N/A   Overcast
4:55 PM 34.7 °F 28.8 °F 5.9 °F 30% 30.20 in 10.0 mi ESE 6.9 mph - N/A   Overcast
5:15 PM 34.3 °F 29.2 °F 6.4 °F 31% 30.20 in 10.0 mi SSE 5.8 mph - N/A   Scattered Clouds
5:35 PM 32.9 °F 26.7 °F 6.3 °F 33% 30.20 in 10.0 mi SSW 6.9 mph - N/A   Scattered Clouds
5:55 PM 31.5 °F 24.9 °F 6.6 °F 35% 30.21 in 10.0 mi SW 6.9 mph - N/A   Scattered Clouds
6:15 PM 30.2 °F 22.6 °F 5.9 °F 36% 30.22 in 10.0 mi SW 8.1 mph - N/A   Clear
6:35 PM 29.7 °F 21.3 °F 6.1 °F 37% 30.23 in 10.0 mi SW 9.2 mph - N/A   Clear
6:55 PM 29.3 °F 22.3 °F 5.7 °F 37% 30.23 in 10.0 mi WSW 6.9 mph - N/A   Clear
7:15 PM 28.9 °F 20.4 °F 5.5 °F 37% 30.24 in 10.0 mi WSW 9.2 mph - N/A   Clear
7:35 PM 28.4 °F 20.4 °F 6.1 °F 39% 30.25 in 10.0 mi SW 8.1 mph - N/A   Clear
7:55 PM 27.5 °F 19.3 °F 7.5 °F 43% 30.27 in 10.0 mi SW 8.1 mph - N/A   Clear
8:15 PM 28.2 °F - 7.2 °F 41% 30.26 in 10.0 mi Calm Calm - N/A   Mostly Cloudy
8:35 PM 28.9 °F 23.9 °F 6.8 °F 39% 30.26 in 10.0 mi West 4.6 mph - N/A   Overcast
8:55 PM 28.9 °F - 7.3 °F 40% 30.25 in 10.0 mi Calm Calm - N/A   Overcast
9:15 PM 29.3 °F 25.6 °F 6.1 °F 37% 30.26 in 10.0 mi WNW 3.5 mph - N/A   Overcast
9:35 PM 29.3 °F 25.6 °F 7.3 °F 40% 30.25 in 10.0 mi West 3.5 mph - N/A   Overcast
9:55 PM 29.3 °F - 8.6 °F 42% 30.25 in 10.0 mi Calm Calm - N/A   Overcast
10:15 PM 29.3 °F - 4.8 °F 35% 30.25 in 10.0 mi Calm Calm - N/A   Overcast
10:35 PM 29.5 °F - 5.9 °F 37% 30.25 in 10.0 mi Calm Calm - N/A   Overcast
10:55 PM 29.3 °F - 5.5 °F 37% 30.24 in 10.0 mi Calm Calm - N/A   Overcast
11:15 PM 29.1 °F 25.4 °F 5.9 °F 37% 30.25 in 10.0 mi SSW 3.5 mph - N/A   Overcast
11:35 PM 28.9 °F 21.9 °F 4.8 °F 36% 30.26 in 10.0 mi SW 6.9 mph - N/A   Overcast
11:55 PM 28.9 °F - 4.3 °F 35% 30.26 in 10.0 mi Calm Calm - N/A   Overcast